This demonstration page uses our WeatherBlox Daily Observations layout. Learn more.

38.89511, -77.03637

Hourly Observations for January 26, 2015

Temp ( °F °C ) Dew Point ( °F °C ) Humidity (%) Winds ( mph kmh ) Pressure ( in mb ) Visibility ( mi km ) Precip ( " mm )
12:52 am 00:52 Cloudy 45 7 32 0 61 61 ESE 5 7 29.83 1010 10 16.09344 0 0
1:52 am 01:52 Cloudy 45 7 34 1 66 66 NE 7 11 29.83 1010 10 16.09344 0 0
2:52 am 02:52 Cloudy with Light Rain 43 6 34 1 71 71 NE 10 17 29.83 1010 10 16.09344 0.001 0.001
3:52 am 03:52 Cloudy with Light Rain 43 6 36 2 76 76 ENE 9 15 29.8 1009 10 16.09344 0.01 0.254
4:52 am 04:52 Cloudy with Light Rain 41 5 36 2 81 81 ENE 13 20 29.8 1009 5 8.04672 0.02 0.508
5:01 am 05:01 Cloudy with Light Rain 41 5 36 2 81 81 ENE 14 22 29.8 1009 5 8.04672 0.001 0.001
5:42 am 05:42 Cloudy with Light Rain 39 4 34 1 81 81 ENE 17 28 29.8 1009 5 8.04672 0 0
5:52 am 05:52 Cloudy with Light Rain 39 4 34 1 81 81 ENE 15 24 29.8 1009 5 8.04672 0.04 1.016
6:20 am 06:20 Cloudy with Light Rain 39 4 34 1 81 81 ENE 17 28 29.8 1009 5 8.04672 0 0
6:52 am 06:52 Cloudy with Light Rain/Snow 37 3 34 1 87 87 ENE 14 22 29.8 1009 5 8.04672 0.03 0.762
7:52 am 07:52 Cloudy with Light Rain/Snow 37 3 30 -1 75 75 ENE 13 20 29.83 1010 4 6.437376 0.02 0.508
8:52 am 08:52 Cloudy with Light Snow 37 3 30 -1 75 75 NE 13 20 29.8 1009 4 6.437376 0.01 0.254
9:07 am 09:07 Cloudy with Light Snow 37 3 30 -1 75 75 ENE 13 20 29.8 1009 5 8.04672 0.001 0.001
9:27 am 09:27 Cloudy 37 3 30 -1 75 75 ENE 13 20 29.8 1009 9 14.484096 0.001 0.001
9:52 am 09:52 Cloudy 37 3 30 -1 75 75 ENE 13 20 29.8 1009 10 16.09344 0.001 0.001
10:10 am 10:10 Cloudy with Light Snow 37 3 30 -1 75 75 ENE 15 24 29.8 1009 5 8.04672 0 0
10:52 am 10:52 Cloudy with Light Rain/Snow 36 2 30 -1 81 81 NE 13 20 29.8 1009 6 9.656064 0.001 0.001
11:14 am 11:14 Cloudy with Light Snow 36 2 30 -1 81 81 NE 10 17 29.8 1009 2.5 4.02336 0 0
11:35 am 11:35 Cloudy with Light Snow 36 2 30 -1 81 81 NNE 12 19 29.8 1009 4 6.437376 0.03 0.762
11:52 am 11:52 Cloudy with Light Rain/Snow 36 2 28 -2 75 75 NE 15 24 29.8 1009 4 6.437376 0.04 1.016
12:03 pm 12:03 Cloudy with Light Rain/Snow 36 2 28 -2 75 75 NE 14 22 29.77 1008 3 4.828032 0 0
12:29 pm 12:29 Cloudy with Light Rain/Snow 36 2 28 -2 75 75 NNE 9 15 29.77 1008 7 11.265408 0.01 0.254
12:41 pm 12:41 Cloudy with Light Rain/Snow 36 2 28 -2 75 75 NNE 14 22 29.74 1007 5 8.04672 0.01 0.254
12:52 pm 12:52 Cloudy with Light Rain/Snow 36 2 28 -2 75 75 NNE 13 20 29.74 1007 4 6.437376 0.01 0.254
1:52 pm 13:52 Cloudy 34 1 28 -2 81 81 NNE 15 24 29.74 1007 10 16.09344 0.01 0.254
2:52 pm 14:52 Cloudy with Light Rain 34 1 28 -2 81 81 NNE 12 19 29.71 1006 10 16.09344 0.001 0.001
3:24 pm 15:24 Cloudy with Light Rain 36 2 28 -2 75 75 NNE 10 17 29.71 1006 10 16.09344 0 0
3:52 pm 15:52 Cloudy with Light Rain 36 2 28 -2 75 75 NNE 14 22 29.71 1006 10 16.09344 0.001 0.001
4:31 pm 16:31 Cloudy 36 2 28 -2 75 75 N 13 20 29.71 1006 10 16.09344 0.001 0.001
4:52 pm 16:52 Cloudy 36 2 28 -2 75 75 NNE 14 22 29.74 1007 10 16.09344 0.001 0.001
5:07 pm 17:07 Cloudy with Light Snow 34 1 28 -2 81 81 NNE 14 22 29.74 1007 5 8.04672 0.001 0.001
5:52 pm 17:52 Cloudy with Light Snow 34 1 28 -2 81 81 N 15 24 29.74 1007 6 9.656064 0.001 0.001
6:52 pm 18:52 Cloudy with Light Snow 34 1 27 -3 75 75 N 15 24 29.74 1007 6 9.656064 0.01 0.254
7:52 pm 19:52 Cloudy with Light Snow 34 1 27 -3 75 75 N 13 20 29.74 1007 7 11.265408 0.01 0.254
8:26 pm 20:26 Cloudy with Light Snow 34 1 27 -3 75 75 NNW 13 20 29.77 1008 7 11.265408 0 0
8:52 pm 20:52 Cloudy with Light Snow 32 0 27 -3 80 80 N 16 26 29.77 1008 6 9.656064 0.001 0.001
9:05 pm 21:05 Cloudy with Light Snow 32 0 27 -3 80 80 NNW 13 20 29.77 1008 3 4.828032 0.001 0.001
9:08 pm 21:08 Cloudy with Light Snow 30 -1 25 -4 80 80 NW 14 22 29.77 1008 3 4.828032 0 0
9:18 pm 21:18 Cloudy with Light Snow 30 -1 25 -4 80 80 NW 15 24 29.77 1008 3 4.828032 0 0
9:52 pm 21:52 Cloudy with Light Snow 30 -1 23 -5 75 75 NNW 16 26 29.77 1008 3 4.828032 0.001 0.001
10:00 pm 22:00 Cloudy with Light Snow 30 -1 23 -5 75 75 NNW 15 24 29.77 1008 2.5 4.02336 0 0
10:04 pm 22:04 Cloudy with Light Snow 30 -1 23 -5 75 75 NNW 17 28 29.77 1008 3 4.828032 0 0
10:52 pm 22:52 Cloudy with Light Snow 28 -2 23 -5 80 80 NNW 15 24 29.77 1008 4 6.437376 0.001 0.001
11:52 pm 23:52 Windy with Snow Likely 30 -1 23 -5 75 75 NNW 20 31 29.77 1008 5 8.04672 0.001 0.001

Powered by AerisWeather